Regional Weather Roundup
Issued by NWS

Home | Current Version | Previous Version | Text Only | Print | Product List | Glossary On
Versions: 1 2 3 4 5 6 7 8 9 10 11 12 13 14 15 16 17 18 19 20 21 22 23 24 25 26 27 28 29 30 31 32 33 34 35 36 37 38 39 40 41 42 43 44 45 46 47 48 49 50
000
ASUS44 KBMX 131510
RWRAL

ALABAMA REGIONAL WEATHER ROUNDUP
NATIONAL WEATHER SERVICE BIRMINGHAM AL
1000 AM CDT SUN JUL 13 2014

NOTE: "FAIR" INDICATES FEW OR NO CLOUDS BELOW 12,000 FEET
WITH NO SIGNIFICANT WEATHER AND/OR OBSTRUCTIONS TO VISIBILITY.

THE REMARK "TC" DENOTES TEMPERATURE IN DEGREES CELSIUS.

ALZ001>011-014-016>018-020-131600-
NORTH ALABAMA

CITY           SKY/WX    TMP DP  RH WIND       PRES   REMARKS
MUSCLE SHOALS  MOSUNNY   87  69  54 N3        30.14F HX  91
HUNTSVILLE     PTSUNNY   86  74  67 VRB5      30.14F HX  94
DECATUR        MOSUNNY   84  74  71 S5        30.14F HX  91
HALEYVILLE     FAIR      84  73  69 W5        30.18S HX  90
GADSDEN        SUNNY     84  72  65 CALM      30.15S
$$

ALZ012-013-022-023-030>036-040>044-131600-
WEST CENTRAL ALABAMA

CITY           SKY/WX    TMP DP  RH WIND       PRES   REMARKS
TUSCALOOSA     MOSUNNY   86  74  67 VRB3      30.13S HX  94
$$

ALZ015-024>027-033>036-040>044-131600-
CENTRAL ALABAMA

CITY           SKY/WX    TMP DP  RH WIND       PRES   REMARKS
BIRMINGHAM     PTSUNNY   87  69  54 CALM      30.16F HX  91
MONTGOMERY     SUNNY     85  72  65 E6        30.15S HX  91
SHELBY CO ARPT MOSUNNY   86  72  62 S7        30.15F HX  92
MAXWELL AFB    SUNNY     84  74  71 SE6       30.15S HX  90
GREENVILLE     CLOUDY    81  73  78 SE5       30.16S
$$

ALZ019-021-028-029-037-038-045>048-131600-
EAST CENTRAL ALABAMA

CITY           SKY/WX    TMP DP  RH WIND       PRES   REMARKS
ANNISTON       SUNNY     84  71  65 W3        30.16S
ALEXANDER CITY SUNNY     82  71  69 E3        30.18S
AUBURN         CLOUDY    73  68  83 S5        30.22S
$$

ALZ051>064-131600-
SOUTHWEST ALABAMA

CITY           SKY/WX    TMP DP  RH WIND       PRES   REMARKS
MOBILE         MOSUNNY   85  73  67 SE7       30.13F HX  91
BROOKLEY FIELD MOSUNNY   85  77  77 SE7       30.14R HX  95
EVERGREEN      MOSUNNY   83  75  77 SE8       30.16S HX  90
$$

ALZ049-050-065>069-131600-
SOUTHEAST ALABAMA

CITY           SKY/WX    TMP DP  RH WIND       PRES   REMARKS
DOTHAN         MOSUNNY   79  73  82 SE3       30.19F
OZARK          PTSUNNY   79  73  83 SE2       30.16F
TROY           PTSUNNY   84  72  67 SE5       30.17S
EUFAULA        CLOUDY    80  72  76 SW3       30.16F
$$


USA.gov is the U.S. government's official web portal to all federal, state and local government web resources and services.